| time (UTC) | temp C | wind direction | speed KPH | gust KPH | rain 1hr cm | rain 24hr cm | rain mn cm | humidity % | barometer mb |
| 20260902120126 | 19 | 203 | 6.4 | 9.7 | 0.00 | 0.00 | 0.00 | 99 | 1019.8 |
| 20260902115122 | 19 | 205 | 3.2 | 6.4 | 0.00 | 0.00 | 0.00 | 99 | 1019.3 |
| 20260902114117 | 18 | 168 | 1.6 | 6.4 | 0.00 | 0.00 | 0.00 | 99 | 1019.5 |
| 20260902113113 | 18 | 177 | 3.2 | 4.8 | 0.00 | 0.00 | 0.00 | 99 | 1019.7 |
| 20260902112112 | 18 | 197 | 0.0 | 6.4 | 0.00 | 0.00 | 0.00 | 99 | 1020.0 |
| 20260902111108 | 18 | 203 | 6.4 | 6.4 | 0.00 | 0.00 | 0.00 | 99 | 1019.6 |
| 20260902110107 | 17 | 221 | 3.2 | 6.4 | 0.00 | 0.00 | 0.00 | 99 | 1019.7 |
| 20260902105106 | 18 | 160 | 0.0 | 3.2 | 0.00 | 0.00 | 0.00 | 99 | 1019.7 |
| 20260902104102 | 18 | 171 | 4.8 | 6.4 | 0.00 | 0.00 | 0.00 | 99 | 1019.7 |
| 20260902103058 | 18 | 153 | 3.2 | 6.4 | 0.00 | 0.00 | 0.00 | 99 | 1019.7 |
| 20260902102057 | 18 | 156 | 1.6 | 3.2 | 0.00 | 0.00 | 0.00 | 99 | 1019.8 |
| 20260902101056 | 18 | 198 | 1.6 | 3.2 | 0.00 | 0.00 | 0.00 | 99 | 1020.1 |
| 20260902100052 | 18 | 203 | 3.2 | 4.8 | 0.00 | 0.00 | 0.00 | 99 | 1020.1 |
| 20260902095050 | 18 | 162 | 0.0 | 8.0 | 0.00 | 0.00 | 0.00 | 99 | 1019.9 |
| 20260902094048 | 18 | 148 | 0.0 | 6.4 | 0.00 | 0.00 | 0.00 | 99 | 1019.8 |
| 20260902093042 | 17 | 197 | 8.0 | 9.7 | 0.00 | 0.00 | 0.00 | 99 | 1019.7 |
| 20260902092038 | 17 | 176 | 1.6 | 4.8 | 0.00 | 0.00 | 0.00 | 99 | 1019.9 |
| 20260902091035 | 17 | 135 | 0.0 | 3.2 | 0.00 | 0.00 | 0.00 | 99 | 1019.7 |
| 20260902090030 | 17 | 118 | 3.2 | 3.2 | 0.00 | 0.00 | 0.00 | 99 | 1019.8 |
| 20260902085025 | 17 | 189 | 0.0 | 4.8 | 0.00 | 0.00 | 0.00 | 99 | 1019.8 |
| 20260902084023 | 17 | 236 | 1.6 | 6.4 | 0.00 | 0.00 | 0.00 | 99 | 1019.6 |
| 20260902083018 | 18 | 211 | 4.8 | 4.8 | 0.00 | 0.00 | 0.00 | 99 | 1019.6 |
| 20260902082016 | 18 | 193 | 1.6 | 8.0 | 0.00 | 0.00 | 0.00 | 99 | 1019.8 |
| 20260902081012 | 18 | 155 | 0.0 | 4.8 | 0.00 | 0.00 | 0.00 | 99 | 1019.4 |
| 20260902080010 | 17 | 166 | 3.2 | 3.2 | 0.00 | 0.00 | 0.00 | 99 | 1019.6 |
| 20260902075006 | 18 | 206 | 3.2 | 4.8 | 0.00 | 0.00 | 0.00 | 99 | 1019.4 |
| 20260902074006 | 17 | 203 | 0.0 | 3.2 | 0.00 | 0.00 | 0.00 | 99 | 1019.3 |
| 20260902073005 | 17 | 140 | 1.6 | 3.2 | 0.00 | 0.00 | 0.00 | 99 | 1019.2 |
| 20260902072003 | 17 | 170 | 0.0 | 1.6 | 0.00 | 0.00 | 0.00 | 99 | 1019.4 |
| 20260902070958 | 18 | 195 | 3.2 | 4.8 | 0.00 | 0.00 | 0.00 | 99 | 1019.5 |
| 20260902065958 | 18 | 205 | 0.0 | 4.8 | 0.00 | 0.00 | 0.00 | 99 | 1019.6 |
| 20260902064954 | 17 | 242 | 1.6 | 4.8 | 0.00 | 0.00 | 0.00 | 99 | 1019.5 |
| 20260902063952 | 18 | 228 | 3.2 | 4.8 | 0.05 | 0.00 | 0.00 | 99 | 1019.7 |
| 20260902062947 | 18 | 177 | 0.0 | 3.2 | 0.00 | 0.00 | 0.00 | 99 | 1019.8 |
| 20260902061946 | 18 | 225 | 0.0 | 4.8 | 0.00 | 0.00 | 0.00 | 99 | 1019.6 |
| 20260902060943 | 18 | 197 | 0.0 | 3.2 | 0.00 | 0.00 | 0.00 | 99 | 1019.7 |
| 20260902055941 | 18 | 189 | 0.0 | 3.2 | 0.00 | 0.00 | 0.00 | 99 | 1019.7 |
| 20260902054938 | 18 | 180 | 0.0 | 4.8 | 0.00 | 0.00 | 0.00 | 99 | 1019.7 |
| 20260902053934 | 18 | 211 | 0.0 | 4.8 | 0.00 | 0.00 | 0.00 | 99 | 1019.7 |
| 20260902052928 | 18 | 190 | 1.6 | 3.2 | 0.00 | 0.00 | 0.00 | 99 | 1019.7 |
| 20260902051924 | 18 | 106 | 0.0 | 3.2 | 0.00 | 0.00 | 0.00 | 99 | 1019.7 |
| 20260902050923 | 18 | 156 | 3.2 | 3.2 | 0.00 | 0.00 | 0.00 | 99 | 1019.9 |
| 20260902045918 | 18 | 194 | 3.2 | 4.8 | 0.00 | 0.00 | 0.00 | 99 | 1019.8 |
| 20260902044916 | 18 | 166 | 0.0 | 3.2 | 0.00 | 0.00 | 0.00 | 99 | 1019.6 |
| 20260902043912 | 18 | 141 | 0.0 | 0.0 | 0.00 | 0.00 | 0.00 | 99 | 1019.6 |
| 20260902042908 | 18 | 128 | 1.6 | 3.2 | 0.00 | 0.00 | 0.00 | 99 | 1019.7 |
| 20260902041903 | 18 | 215 | 3.2 | 4.8 | 0.00 | 0.00 | 0.00 | 99 | 1019.5 |
| 20260902040902 | 18 | 246 | 1.6 | 3.2 | 0.00 | 0.00 | 0.00 | 99 | 1019.7 |
| 20260902035856 | 18 | 217 | 3.2 | 4.8 | 0.00 | 0.46 | 0.46 | 99 | 1019.6 |
| 20260902034850 | 18 | 346 | 0.0 | 1.6 | 0.00 | 0.46 | 0.46 | 99 | 1019.4 |
| 20260902033850 | 18 | 152 | 0.0 | 3.2 | 0.00 | 0.46 | 0.46 | 99 | 1019.3 |
| 20260902032844 | 19 | 209 | 0.0 | 3.2 | 0.00 | 0.46 | 0.46 | 99 | 1019.2 |
| 20260902031844 | 19 | 269 | 0.0 | 3.2 | 0.00 | 0.46 | 0.46 | 99 | 1019.2 |
| 20260902030842 | 19 | 206 | 0.0 | 3.2 | 0.00 | 0.46 | 0.46 | 99 | 1019.3 |
| 20260902025841 | 18 | 211 | 3.2 | 4.8 | 0.00 | 0.46 | 0.46 | 99 | 1019.2 |
| 20260902024837 | 18 | 217 | 0.0 | 3.2 | 0.00 | 0.46 | 0.46 | 99 | 1019.0 |
| 20260902023834 | 19 | 170 | 0.0 | 3.2 | 0.00 | 0.46 | 0.46 | 99 | 1018.9 |
| 20260902022834 | 19 | 163 | 0.0 | 3.2 | 0.00 | 0.46 | 0.46 | 99 | 1018.6 |
| 20260902021832 | 19 | 144 | 0.0 | 3.2 | 0.00 | 0.46 | 0.46 | 99 | 1018.8 |
| 20260902020828 | 19 | 104 | 0.0 | 3.2 | 0.00 | 0.46 | 0.46 | 99 | 1018.6 |
| 20260902015825 | 19 | 153 | 1.6 | 1.6 | 0.00 | 0.46 | 0.46 | 99 | 1018.8 |
| 20260902014822 | 19 | 132 | 3.2 | 3.2 | 0.00 | 0.46 | 0.46 | 99 | 1019.0 |
| 20260902013817 | 19 | 178 | 0.0 | 3.2 | 0.00 | 0.46 | 0.46 | 99 | 1018.7 |
| 20260902012814 | 20 | 198 | 3.2 | 4.8 | 0.00 | 0.46 | 0.46 | 99 | 1018.4 |
| 20260902011811 | 20 | 177 | 0.0 | 1.6 | 0.00 | 0.46 | 0.46 | 99 | 1018.3 |
| 20260902010810 | 20 | 181 | 0.0 | 1.6 | 0.00 | 0.46 | 0.46 | 99 | 1018.6 |
| 20260902005805 | 20 | 144 | 1.6 | 1.6 | 0.00 | 0.46 | 0.46 | 99 | 1018.5 |
| 20260902004800 | 20 | 262 | 1.6 | 3.2 | 0.00 | 0.46 | 0.46 | 99 | 1018.5 |
| 20260902003756 | 20 | 256 | 1.6 | 3.2 | 0.00 | 0.46 | 0.46 | 99 | 1018.5 |
| 20260902002753 | 20 | 212 | 0.0 | 0.0 | 0.00 | 0.46 | 0.46 | 99 | 1018.4 |
| 20260902001748 | 20 | 259 | 1.6 | 3.2 | 0.00 | 0.46 | 0.46 | 99 | 1017.7 |
| 20260902000749 | 21 | 147 | 0.0 | 3.2 | 0.00 | 0.46 | 0.46 | 99 | 1017.6 |
| 20260901235744 | 21 | 218 | 0.0 | 3.2 | 0.05 | 0.46 | 0.46 | 99 | 1017.8 |
| 20260901234744 | 22 | 194 | 0.0 | 3.2 | 0.00 | 0.46 | 0.46 | 99 | 1017.7 |
| 20260901233739 | 22 | 25 | 0.0 | 6.4 | 0.18 | 0.46 | 0.46 | 99 | 1017.3 |
| 20260901232736 | 22 | 201 | 3.2 | 4.8 | 1.45 | 0.43 | 0.43 | 99 | 1018.1 |
| 20260901231733 | 23 | 349 | 6.4 | 6.4 | 0.48 | 0.15 | 0.15 | 92 | 1018.5 |
| 20260901230731 | 23 | 134 | 0.0 | 3.2 | 0.00 | 0.08 | 0.08 | 89 | 1017.3 |
| 20260901225726 | 24 | 211 | 1.6 | 3.2 | 0.00 | 0.08 | 0.08 | 88 | 1017.2 |
| 20260901224722 | 24 | 130 | 0.0 | 4.8 | 0.00 | 0.08 | 0.08 | 88 | 1017.4 |
| 20260901223720 | 25 | 227 | 1.6 | 4.8 | 0.00 | 0.08 | 0.08 | 94 | 1017.5 |
| 20260901222717 | 24 | 158 | 1.6 | 1.6 | 0.00 | 0.08 | 0.08 | 94 | 1017.4 |
| 20260901221714 | 24 | 202 | 0.0 | 6.4 | 0.00 | 0.08 | 0.08 | 95 | 1017.8 |
| 20260901220709 | 24 | 220 | 3.2 | 3.2 | 0.00 | 0.08 | 0.08 | 95 | 1017.5 |
| 20260901215707 | 24 | 152 | 0.0 | 3.2 | 0.00 | 0.08 | 0.08 | 94 | 1017.1 |
| 20260901214706 | 25 | 141 | 0.0 | 4.8 | 0.00 | 0.08 | 0.08 | 93 | 1016.8 |
| 20260901213700 | 25 | 344 | 4.8 | 8.0 | 0.00 | 0.08 | 0.08 | 91 | 1016.6 |
| 20260901212700 | 25 | 295 | 6.4 | 8.0 | 0.00 | 0.08 | 0.08 | 91 | 1017.0 |
| 20260901211656 | 26 | 86 | 1.6 | 11.3 | 0.00 | 0.08 | 0.08 | 90 | 1016.5 |
| 20260901210653 | 27 | 52 | 1.6 | 4.8 | 0.00 | 0.08 | 0.08 | 82 | 1016.7 |
| 20260901205651 | 27 | 345 | 3.2 | 6.4 | 0.00 | 0.08 | 0.08 | 83 | 1017.0 |
| 20260901204647 | 28 | 333 | 3.2 | 3.2 | 0.00 | 0.08 | 0.08 | 78 | 1016.6 |
| 20260901203642 | 28 | 3 | 1.6 | 6.4 | 0.00 | 0.08 | 0.08 | 78 | 1016.5 |
| 20260901202642 | 28 | 68 | 3.2 | 3.2 | 0.00 | 0.08 | 0.08 | 81 | 1016.4 |
| 20260901201640 | 28 | 46 | 3.2 | 4.8 | 0.00 | 0.08 | 0.08 | 81 | 1016.8 |
| 20260901200639 | 28 | 345 | 3.2 | 8.0 | 0.00 | 0.08 | 0.08 | 82 | 1016.8 |
| 20260901195638 | 28 | 17 | 4.8 | 8.0 | 0.00 | 0.08 | 0.08 | 81 | 1016.8 |
| 20260901194633 | 29 | 25 | 1.6 | 6.4 | 0.00 | 0.08 | 0.08 | 79 | 1016.9 |
| 20260901193630 | 29 | 283 | 8.0 | 9.7 | 0.00 | 0.08 | 0.08 | 76 | 1016.9 |
| 20260901192625 | 29 | 195 | 3.2 | 6.4 | 0.00 | 0.08 | 0.08 | 80 | 1016.9 |
| 20260901191622 | 29 | 246 | 3.2 | 8.0 | 0.00 | 0.08 | 0.08 | 79 | 1017.0 |
| 20260901190620 | 28 | 221 | 4.8 | 11.3 | 0.00 | 0.08 | 0.08 | 83 | 1017.0 |
| 20260901185617 | 28 | 193 | 1.6 | 9.7 | 0.00 | 0.08 | 0.08 | 80 | 1017.0 |
| 20260901184617 | 28 | 280 | 4.8 | 9.7 | 0.00 | 0.08 | 0.08 | 78 | 1017.1 |
| 20260901183614 | 28 | 213 | 6.4 | 16.1 | 0.00 | 0.08 | 0.08 | 81 | 1017.1 |
| 20260901182611 | 28 | 264 | 3.2 | 4.8 | 0.00 | 0.08 | 0.08 | 84 | 1017.1 |
| 20260901181610 | 27 | 198 | 4.8 | 11.3 | 0.00 | 0.08 | 0.08 | 83 | 1017.1 |
| 20260901180609 | 26 | 300 | 3.2 | 6.4 | 0.00 | 0.08 | 0.08 | 87 | 1017.2 |
| 20260901175608 | 27 | 280 | 0.0 | 6.4 | 0.00 | 0.08 | 0.08 | 83 | 1017.0 |
| 20260901174605 | 26 | 323 | 3.2 | 6.4 | 0.00 | 0.08 | 0.08 | 88 | 1017.0 |
| 20260901173601 | 26 | 269 | 6.4 | 9.7 | 0.00 | 0.08 | 0.08 | 86 | 1017.1 |
| 20260901172558 | 26 | 208 | 3.2 | 4.8 | 0.00 | 0.08 | 0.08 | 87 | 1017.1 |
| 20260901171555 | 26 | 227 | 4.8 | 4.8 | 0.00 | 0.08 | 0.08 | 87 | 1017.4 |
| 20260901170555 | 26 | 216 | 3.2 | 9.7 | 0.00 | 0.08 | 0.08 | 86 | 1016.9 |
| 20260901165549 | 26 | 189 | 3.2 | 9.7 | 0.00 | 0.08 | 0.08 | 88 | 1017.0 |
| 20260901164546 | 26 | 4 | 0.0 | 4.8 | 0.00 | 0.08 | 0.08 | 86 | 1017.2 |
| 20260901163542 | 25 | 204 | 3.2 | 11.3 | 0.00 | 0.08 | 0.08 | 90 | 1017.4 |
| 20260901162542 | 25 | 210 | 6.4 | 6.4 | 0.00 | 0.08 | 0.08 | 90 | 1017.3 |
| 20260901161541 | 25 | 202 | 6.4 | 11.3 | 0.00 | 0.08 | 0.08 | 89 | 1017.3 |
| 20260901160537 | 25 | 233 | 4.8 | 8.0 | 0.00 | 0.08 | 0.08 | 90 | 1017.2 |
| 20260901155537 | 25 | 247 | 3.2 | 6.4 | 0.00 | 0.08 | 0.08 | 90 | 1017.5 |
| 20260901154532 | 25 | 208 | 6.4 | 9.7 | 0.00 | 0.08 | 0.08 | 90 | 1017.5 |
| 20260901153528 | 24 | 214 | 3.2 | 9.7 | 0.00 | 0.08 | 0.08 | 91 | 1017.8 |
| 20260901152528 | 24 | 216 | 4.8 | 8.0 | 0.00 | 0.08 | 0.08 | 91 | 1017.6 |
| 20260901151523 | 25 | 205 | 3.2 | 9.7 | 0.00 | 0.08 | 0.08 | 89 | 1017.5 |
| 20260901150520 | 24 | 227 | 4.8 | 9.7 | 0.00 | 0.08 | 0.08 | 91 | 1017.8 |
| 20260901145518 | 23 | 179 | 6.4 | 9.7 | 0.00 | 0.08 | 0.08 | 93 | 1017.5 |
| 20260901144514 | 23 | 308 | 1.6 | 8.0 | 0.00 | 0.08 | 0.08 | 93 | 1017.6 |
| 20260901143510 | 22 | 224 | 0.0 | 11.3 | 0.00 | 0.08 | 0.08 | 97 | 1017.5 |
| 20260901142507 | 21 | 221 | 4.8 | 8.0 | 0.00 | 0.08 | 0.08 | 99 | 1017.8 |
| 20260901141502 | 21 | 214 | 3.2 | 6.4 | 0.00 | 0.08 | 0.08 | 99 | 1017.7 |
| 20260901140501 | 21 | 188 | 3.2 | 8.0 | 0.00 | 0.08 | 0.08 | 99 | 1017.6 |
| 20260901135501 | 21 | 168 | 3.2 | 8.0 | 0.00 | 0.08 | 0.08 | 99 | 1017.7 |
| 20260901134459 | 21 | 207 | 3.2 | 6.4 | 0.00 | 0.08 | 0.08 | 99 | 1017.4 |
| 20260901133458 | 21 | 193 | 1.6 | 6.4 | 0.00 | 0.08 | 0.08 | 99 | 1017.6 |
| 20260901132457 | 20 | 211 | 8.0 | 11.3 | 0.00 | 0.08 | 0.08 | 99 | 1017.5 |
| 20260901131456 | 20 | 207 | 4.8 | 6.4 | 0.00 | 0.08 | 0.08 | 99 | 1017.9 |
| 20260901130452 | 20 | 211 | 8.0 | 8.0 | 0.05 | 0.08 | 0.08 | 99 | 1017.8 |
| 20260901125450 | 20 | 147 | 4.8 | 8.0 | 0.00 | 0.08 | 0.08 | 99 | 1018.1 |
| 20260901124446 | 20 | 185 | 1.6 | 6.4 | 0.13 | 0.08 | 0.08 | 99 | 1017.9 |
| 20260901123441 | 20 | 222 | 4.8 | 6.4 | 0.00 | 0.05 | 0.05 | 99 | 1018.1 |
| 20260901122439 | 20 | 261 | 3.2 | 8.0 | 0.13 | 0.05 | 0.05 | 99 | 1017.9 |
| 20260901121439 | 20 | 200 | 3.2 | 8.0 | 0.00 | 0.03 | 0.03 | 99 | 1018.0 |